Current weather by "City, St" or "zip code"  
 

Current Conditions: HAWTHORNE

NULL


59.0 F

Last Updated on May 26 2024, 01:53 AM PDT
Humidity: 81%
Wind Speed: 0.0 mph
Barometer 30.00 in
Dewpoint: 53.1 F
Visibility: 10.00 mi
Precip: --
Heat Index: NA
Wind Chill: NA
Current conditions at:

HAWTHORNE (KHHR)

Lat: 33.92 Lon: 118.33

active severe weather and emergency alerts image image weather storm and storm spotter reports image weather observation monitoring service image
Active
Alerts
Storm Reports Obs
Monitoring

Sign-up For Email & Text Message Weather Alert Notification Services



Advertise Here

Observation History for HAWTHORNE


Time Wind
(mph)
Vis
(mi)
Weather Precip (in) Temperature (F) Relative
Humidity
Wind
Chill
(F)
Heat
Index
(F)
Pressure
Air Dwpt altimeter
(in)
sea level
(mb)
Rmks
01:53 AM PDT 0.0 10.00 NULL -- 59.0 53.1 81% NA NA 30.00 1015.9
01:29 AM PDT 0.0 10.00 Mostly Cloudy -- 59.0 53.1 81% NA NA 30.00 1015.9
12:53 AM PDT 0.0 10.00 Clear -- 59.0 53.1 81% NA NA 30.00 1015.9
11:53 PM PDT 3.4 10.00 Clear -- 60.1 52.0 75% NA NA 30.01 1016.3
10:53 PM PDT W 3.4 10.00 Clear -- 60.1 52.0 75% NA NA 30.01 1016.3
09:53 PM PDT 4.7 10.00 Clear -- 60.1 54.0 80% NA NA 30.01 1016.3
08:53 PM PDT 4.7 10.00 Clear -- 60.1 53.1 78% NA NA 30.00 1015.9
07:53 PM PDT 6.9 10.00 Clear -- 61.0 52.0 72% NA NA 29.99 1015.6
06:53 PM PDT 8.1 10.00 Clear -- 63.0 51.1 65% NA NA 29.98 1015.2
05:53 PM PDT 11.4 10.00 Clear -- 63.0 50.0 63% NA NA 29.98 1015.2
04:53 PM PDT 11.4 10.00 Clear -- 64.9 50.0 58% NA NA 29.98 1015.2
03:53 PM PDT 11.4 10.00 Clear -- 64.9 50.0 58% NA NA 29.99 1015.6
02:53 PM PDT W 11.4 10.00 Clear -- 66.9 48.9 52% NA NA 30.00 1015.9
01:53 PM PDT 9.2 10.00 Clear -- 66.0 50.0 56% NA NA 30.01 1016.3
12:53 PM PDT 13.9 10.00 Mostly Cloudy -- 66.9 51.1 57% NA NA 30.02 1016.6
11:08 AM PDT W 8.1 10.00 Partly Cloudy -- 64.0 50.0 60% NA NA 30.02 1016.6
10:53 AM PDT 6.9 10.00 Cloudy -- 64.0 50.0 60% NA NA 30.02 1016.6
09:53 AM PDT 3.4 10.00 Mostly Cloudy -- 62.1 48.9 62% NA NA 30.01 1016.3
08:53 AM PDT 3.4 10.00 Cloudy -- 61.0 50.0 67% NA NA 30.01 1016.3
07:53 AM PDT SW 3.4 10.00 Cloudy -- 59.0 50.0 72% NA NA 29.99 1015.6
07:38 AM PDT 0.0 10.00 Cloudy -- 59.0 50.0 72% NA NA 29.99 1015.6
06:53 AM PDT W 4.7 10.00 Cloudy -- 57.9 50.0 75% NA NA 29.98 1015.2
05:53 AM PDT 3.4 10.00 Cloudy -- 57.9 50.0 75% NA NA 29.95 1014.2
04:53 AM PDT W 3.4 10.00 Cloudy -- 57.9 51.1 78% NA NA 29.95 1014.2

Regional Weather Observation


()


F

VAN NUYS (KVNY)

NULL
55.9 F

BURBANK (KBUR)

NULL
55.0 F

LA / WHITEMAN (KWHP)

Partly Cloudy
64.4 F

LOS ANGELES (KLAX)

NULL
57.9 F

HAWTHORNE (KHHR)

NULL
59.0 F

Advertise Here


Advertise Here